Fallon NAS, NV

2:11 PM PDT on May 25, 2018 (GMT -0700)
Fallon Naval Air Station

Weather History for KNFL - August, 2012

Change the Weather History Date:

Sunday, August 12, 2012

  Actual Average Record
Temperature  
Mean Temperature 82 °F -  
Max Temperature 100 °F 90 °F 105 °F (1960)
Min Temperature 64 °F 53 °F 40 °F (1985)
Cooling Degree Days 16    
Growing Degree Days 32 (Base 50)    
Moisture  
Dew Point 44 °F    
Average Humidity 27    
Maximum Humidity 50    
Minimum Humidity 11    
Precipitation  
Precipitation 0.00 in - - ()
Sea Level Pressure  
Sea Level Pressure 29.94 in    
Wind  
Wind Speed 7 mph (SSW)    
Max Wind Speed 21 mph    
Max Gust Speed 29 mph    
Visibility 10 miles    
Events      
Averages and records for this station are not official NWS values.
T = Trace of Precipitation, MM = Missing Value Source: NWS Daily Summary

Daily Weather History Graph

Daily Weather History Graph

Search for Another Location

Airport or City:

Astronomy

Aug. 12, 2012 Rise Set
Actual Time 6:05 AM PDT 7:53 PM PDT
Civil Twilight 5:36 AM PDT 8:22 PM PDT
Nautical Twilight 5:01 AM PDT 8:57 PM PDT
Astronomical Twilight 4:23 AM PDT 9:34 PM PDT
Moon 1:22 AM PDT (8/12) 4:21 PM PDT (8/12)
Length of Visible Light 14h 46m
Length of Day
13h 48m
Waning Crescent, 23% of the Moon is Illuminated
Aug 12
Waning Crescent
Aug 17
New
Aug 24
First Quarter
Aug 31
Full
Sep 8
Last Quarter

Hourly Weather History & Observations

Time (PDT) Temp. Dew Point Humidity Pressure Visibility Wind Dir Wind Speed Gust Speed Precip Events Conditions
12:56 AM 77.0 °F 46.0 °F 33% 29.94 in 10.0 mi South 8.1 mph - N/A   Clear
1:56 AM 73.0 °F 46.0 °F 38% 29.94 in 10.0 mi SSE 4.6 mph - N/A   Clear
2:56 AM 73.9 °F 46.0 °F 37% 29.95 in 10.0 mi Calm Calm - N/A   Clear
3:56 AM 68.0 °F 46.0 °F 45% 29.94 in 10.0 mi SSE 8.1 mph - N/A   Clear
4:56 AM 66.0 °F 46.0 °F 48% 29.94 in 10.0 mi South 5.8 mph - N/A   Clear
5:56 AM 64.9 °F 46.0 °F 50% 29.95 in 10.0 mi SW 3.5 mph - N/A   Clear
6:56 AM 69.1 °F 45.0 °F 42% 29.96 in 10.0 mi South 4.6 mph - N/A   Clear
7:56 AM 78.1 °F 48.0 °F 35% 29.97 in 10.0 mi SSW 6.9 mph - N/A   Clear
8:56 AM 84.0 °F 46.9 °F 27% 29.98 in 10.0 mi SSW 4.6 mph - N/A   Clear
9:56 AM 88.0 °F 46.0 °F 23% 29.97 in 10.0 mi South 9.2 mph - N/A   Clear
10:56 AM 91.0 °F 46.0 °F 21% 29.96 in 10.0 mi SE 3.5 mph - N/A   Clear
11:01 AM 91.4 °F 46.4 °F 21% 30.05 in 10.0 mi East 3.5 mph - N/A   Scattered Clouds
11:56 AM 95.0 °F 45.0 °F 18% 29.95 in 10.0 mi Variable 3.5 mph - N/A   Scattered Clouds
12:56 PM 97.0 °F 39.9 °F 14% 29.93 in 10.0 mi North 9.2 mph - N/A   Scattered Clouds
1:56 PM 96.1 °F 35.1 °F 12% 29.92 in 10.0 mi Variable 4.6 mph - N/A   Mostly Cloudy
2:56 PM 96.1 °F 39.0 °F 14% 29.90 in 10.0 mi NW 9.2 mph - N/A   Mostly Cloudy
3:56 PM 98.1 °F 37.9 °F 12% 29.88 in 10.0 mi Variable 6.9 mph - N/A   Mostly Cloudy
4:56 PM 99.0 °F 36.0 °F 11% 29.87 in 10.0 mi Calm Calm - N/A   Mostly Cloudy
5:56 PM 99.0 °F 37.0 °F 12% 29.87 in 10.0 mi WNW 12.7 mph 26.5 mph N/A   Mostly Cloudy
6:56 PM 93.0 °F 39.9 °F 16% 29.87 in 10.0 mi WNW 11.5 mph - N/A   Clear
7:56 PM 87.1 °F 46.0 °F 24% 29.91 in 9.0 mi SW 20.7 mph 28.8 mph N/A   Clear
8:56 PM 84.0 °F 48.0 °F 28% 29.94 in 10.0 mi SW 17.3 mph - N/A   Clear
9:56 PM 82.9 °F 48.0 °F 29% 29.95 in 10.0 mi WSW 12.7 mph - N/A   Clear
10:56 PM 82.0 °F 48.0 °F 30% 29.96 in 10.0 mi South 4.6 mph - N/A   Partly Cloudy
11:56 PM 81.0 °F 48.0 °F 31% 29.96 in 10.0 mi SW 5.8 mph - N/A   Partly Cloudy